Latest Coastal Weather Observations for Northern Endeavour (near 10.5S 126E)

IDD60701

Issued at 6:11 am CST Sunday 1 May 2016 (issued every 10 minutes, with the page automatically refreshed every 10 minutes)

About coastal observations | Map of coastal stations | Coastal observations for NT | Marine services | Other Formats
Station Details ID: 200212 Name: NORTHERN ENDEAVOUR Lat: -10.61 Lon: 125.98 Height: 16.0 m
Data from the previous 72 hours. | See also: Recent months for locations in Northern Territory
Date/Time
CST
Temp

°C
Wind Pressure Rain
since 9am
mm
Weather Cloud Vis
km
Sea
Height
m
Swell
Dir
 
Speed
knots
Gust
knots
hPa Trend Height
m
Period
s
Dir
01/06:00am 29.1 W 1 1 1010.6 - - - Partly cloudy 10 - - - -
01/05:50am 29.1 W 1 2 1010.5 - - - - 10 - - - -
01/05:40am 29.2 N 1 2 1010.4 - - - - 10 - - - -
01/05:30am 29.3 SSE 2 2 1010.5 - - - - 10 - - - -
01/05:20am 29.2 SE 2 2 1010.5 - - - - 10 - - - -
01/05:10am 29.2 ESE 2 2 1010.5 - - - Partly cloudy 10 - - - -
01/05:00am 29.2 E 2 2 1010.6 - - - Partly cloudy 10 - - - -
01/04:50am 29.2 E 2 3 1010.5 - - - Partly cloudy 10 - - - -
01/04:40am 29.2 E 1 2 1010.5 - - - Partly cloudy 10 - - - -
01/04:30am 29.1 WNW 1 1 1010.4 - - - Partly cloudy 10 - - - -
01/04:20am 29.2 SW 1 2 1010.4 - - - Partly cloudy 10 - - - -
01/04:10am 29.2 SW 2 1 1010.4 - - - Partly cloudy 10 - - - -
01/04:00am 29.2 SSW 2 3 1010.4 - - - - 10 - - - -
01/03:50am 29.2 S 3 3 1010.5 - - - - 10 - - - -
01/03:40am 29.3 SE 2 2 1010.4 - - - - 10 - - - -
01/03:30am 29.4 ESE 3 3 1010.4 - - - - 10 - - - -
01/03:20am 29.4 SE 3 4 1010.5 - - - - 10 - - - -
01/03:10am 29.4 ESE 3 4 1010.5 - - - Partly cloudy 10 - - - -
01/03:00am 29.3 E 4 5 1010.5 - - - Partly cloudy 10 - - - -
01/02:50am 29.4 ESE 4 4 1010.6 - - - Partly cloudy 10 - - - -
01/02:40am 29.4 ESE 4 6 1010.7 - - - Partly cloudy 10 - - - -
01/02:30am 29.4 ESE 4 4 1010.8 - - - Partly cloudy 10 - - - -
01/02:20am 29.3 SE 2 4 1010.8 - - - Partly cloudy 10 - - - -
01/02:10am 29.5 SSE 1 2 1010.9 - - - Partly cloudy 10 - - - -
01/02:00am 29.5 SE 4 4 1011.0 - - - Partly cloudy 10 - - - -
01/01:50am 29.4 ESE 5 5 1011.1 - - - Partly cloudy 10 - - - -
01/01:40am 29.5 SE 3 6 1011.1 - - - Partly cloudy 10 - - - -
01/01:30am 29.4 E 2 6 1011.1 - - - Partly cloudy 10 - - - -
01/01:20am 29.5 SE 6 6 1011.2 - - - Partly cloudy 10 - - - -
01/01:10am 29.6 SE 5 6 1011.3 - - - Partly cloudy 10 - - - -
01/01:00am 29.6 SE 6 7 1011.4 - - - - 10 - - - -
01/12:50am 29.6 SE 6 6 1011.4 - - - - 10 - - - -
01/12:40am 29.5 ESE 5 6 1011.5 - - - - 10 - - - -
01/12:30am 29.5 ESE 5 6 1011.5 - - - - 10 - - - -
01/12:20am 29.6 SE 6 6 1011.5 - - - - 10 - - - -
01/12:10am 29.7 ESE 6 6 1011.5 - - - - 10 - - - -
01/12:00am 29.8 ESE 5 6 1011.7 - - - - 10 - - - -
 
Date/Time
CST
Temp

°C
Wind Pressure Rain
since 9am
mm
Weather Cloud Vis
km
Sea
Height
m
Swell
Dir
 
Speed
knots
Gust
knots
hPa Trend Height
m
Period
s
Dir
30/11:50pm 29.9 SE 5 8 1011.8 - - - - 10 - - - -
30/11:40pm 29.8 SE 7 7 1011.8 - - - - 10 - - - -
30/11:30pm 29.8 E 5 8 1011.8 - - - - 10 - - - -
30/11:20pm 29.7 E 5 6 1011.9 - - - Partly cloudy 10 - - - -
30/11:10pm 29.7 E 6 7 1011.8 - - - Partly cloudy 10 - - - -
30/11:00pm 29.8 E 6 7 1011.8 - - - Partly cloudy 10 - - - -
30/10:50pm 29.7 E 7 8 1011.7 - - - Partly cloudy 10 - - - -
30/10:40pm 29.7 E 7 9 1011.7 - - - Partly cloudy 10 - - - -
30/10:30pm 29.7 E 7 8 1011.6 - - - Partly cloudy 10 - - - -
30/10:20pm 29.8 E 7 9 1011.7 - - - Partly cloudy 10 - - - -
30/10:10pm 29.9 E 7 7 1011.8 - - - - 10 - - - -
30/10:00pm 29.9 E 7 5 1011.7 - - - - 10 - - - -
30/09:50pm 29.8 ESE 9 11 1011.7 - - - - 10 - - - -
30/09:40pm 29.9 E 8 10 1011.6 - - - - 10 - - - -
30/09:30pm 30.0 ESE 8 8 1011.5 - - - - 10 - - - -
30/09:20pm 30.1 ESE 8 10 1011.4 - - - - 10 - - - -
30/09:10pm 29.9 ESE 8 12 1011.2 - - - - 10 - - - -
30/09:00pm 30.0 ESE 7 9 1011.1 - - - - 10 - - - -
30/08:50pm 29.8 ESE 7 10 1011.0 - - - - 10 - - - -
30/08:40pm 29.7 ESE 7 7 1010.9 - - - - 10 - - - -
30/08:30pm 29.7 SE 6 8 1010.7 - - - Partly cloudy 10 - - - -
30/08:20pm 29.6 ESE 6 7 1010.7 - - - Partly cloudy 10 - - - -
30/08:10pm 29.6 ESE 6 7 1010.5 - - - - 10 - - - -
30/08:00pm 29.6 ESE 7 8 1010.3 - - - - 10 - - - -
30/07:50pm 29.6 ESE 8 8 1010.1 - - - Partly cloudy 10 - - - -
30/07:40pm 29.6 E 8 9 1010.0 - - - Partly cloudy 10 - - - -
30/07:30pm 29.7 E 9 10 1009.9 - - - Partly cloudy 10 - - - -
30/07:20pm 29.6 E 8 9 1009.9 - - - Partly cloudy 10 - - - -
30/07:10pm 29.6 E 9 9 1009.9 - - - Partly cloudy 10 - - - -
30/07:00pm 29.7 E 7 8 1009.9 - - - Partly cloudy 10 - - - -
30/06:50pm 29.7 E 8 8 1009.9 - - - Partly cloudy 10 - - - -
30/06:40pm 29.9 E 7 8 1009.8 - - - - 10 - - - -
30/06:30pm 30.2 E 7 8 1009.7 - - - - 10 - - - -
30/06:20pm 30.6 ESE 5 7 1009.6 - - - Partly cloudy 10 - - - -
30/06:10pm 30.8 ESE 6 8 1009.5 - - - Partly cloudy 10 - - - -
30/06:00pm 31.7 ESE 7 8 1009.5 - - - Partly cloudy 10 - - - -
30/05:50pm 31.9 E 8 8 1009.4 - - - Partly cloudy 10 - - - -
30/05:40pm 33.3 E 7 7 1009.3 - - - Partly cloudy 10 - - - -
30/05:30pm 33.2 ESE 6 8 1009.2 - - - Partly cloudy 10 - - - -
30/05:20pm 33.3 ESE 6 6 1009.1 - - - Partly cloudy 10 - - - -
30/05:10pm 32.2 ESE 7 7 1009.0 - - - Partly cloudy 10 - - - -
30/05:00pm 32.3 E 7 10 1009.0 - - - Partly cloudy 10 - - - -
30/04:50pm 32.1 ESE 6 8 1008.9 - - - Partly cloudy 10 - - - -
30/04:40pm 32.9 ESE 6 9 1008.8 - - - - 10 - - - -
30/04:30pm 31.4 ESE 6 7 1008.9 - - - - 10 - - - -
30/04:20pm 31.8 ESE 6 6 1008.9 - - - - 10 - - - -
30/04:10pm 32.2 ESE 6 7 1009.0 - - - - 10 - - - -
30/04:00pm 32.3 ESE 6 7 1009.0 - - - Partly cloudy 10 - - - -
30/03:50pm 31.8 ESE 5 7 1008.9 - - - Partly cloudy 10 - - - -
30/03:40pm 32.3 E 5 4 1009.0 - - - Partly cloudy 10 - - - -
30/03:30pm 31.9 ESE 5 6 1009.2 - - - Partly cloudy 10 - - - -
30/03:20pm 31.5 ESE 4 5 1009.3 - - - Partly cloudy 10 - - - -
30/03:10pm 31.4 SE 3 5 1009.4 - - - Partly cloudy 10 - - - -
30/03:00pm 32.1 ESE 4 4 1009.6 - - - Partly cloudy 10 - - - -
30/02:50pm 32.6 ESE 4 3 1009.7 - - - - 10 - - - -
30/02:40pm 31.6 ESE 5 6 1009.8 - - - - 10 - - - -
30/02:30pm 31.8 ESE 4 5 1010.0 - - - Partly cloudy 10 - - - -
30/02:20pm 31.9 ESE 4 4 1010.2 - - - Partly cloudy 10 - - - -
30/02:10pm 31.2 ESE 4 4 1010.3 - - - Partly cloudy 10 - - - -
30/02:00pm 32.7 ENE 3 5 1010.3 - - - Partly cloudy 10 - - - -
30/01:50pm 33.0 E 3 4 1010.5 - - - Partly cloudy 10 - - - -
30/01:40pm 31.8 E 3 3 1010.6 - - - Partly cloudy 10 - - - -
30/01:30pm 31.6 NE 3 4 1010.7 - - - Partly cloudy 10 - - - -
30/01:20pm 30.8 NE 4 5 1010.8 - - - Partly cloudy 10 - - - -
30/01:10pm 31.8 ENE 5 8 1011.0 - - - Partly cloudy 10 - - - -
30/01:00pm 33.3 ENE 4 5 1011.2 - - - Partly cloudy 10 - - - -
30/12:50pm 32.2 E 4 5 1011.3 - - - - 10 - - - -
30/12:40pm 31.9 E 4 4 1011.4 - - - - 10 - - - -
30/12:30pm 32.4 ENE 4 5 1011.5 - - - - 10 - - - -
30/12:20pm 32.3 ENE 4 6 1011.5 - - - - 10 - - - -
30/12:10pm 31.7 NE 4 2 1011.6 - - - - 10 - - - -
30/12:00pm 31.9 ENE 5 7 1011.7 - - - - 10 - - - -
30/11:50am 31.9 NE 6 10 1011.8 - - - - 10 - - - -
30/11:40am 32.2 NE 6 7 1011.9 - - - - 10 - - - -
30/11:30am 31.9 NE 6 6 1012.1 - - - - 10 - - - -
30/11:20am 30.6 ENE 7 7 1012.1 - - - - 10 - - - -
30/11:10am 31.0 ENE 7 9 1012.0 - - - - 10 - - - -
30/11:00am 30.6 NE 6 7 1012.1 - - - - 10 - - - -
30/10:50am 30.3 NE 6 8 1012.1 - - - - 10 - - - -
30/10:40am 30.3 ENE 6 8 1012.1 - - - - 10 - - - -
30/10:30am 30.5 ENE 7 9 1012.1 - - - - 10 - - - -
30/10:20am 30.3 NE 6 9 1012.1 - - - - 10 - - - -
30/10:10am 30.2 ENE 5 7 1012.1 - - - - 10 - - - -
30/10:00am 30.6 ENE 6 8 1012.1 - - - - 10 - - - -
30/09:50am 30.4 E 6 8 1012.1 - - - - 10 - - - -
30/09:40am 30.1 NE 6 7 1012.1 - - - - 10 - - - -
30/09:30am 30.2 NE 6 7 1012.1 - - - - 10 - - - -
30/09:20am 29.8 NE 6 9 1012.0 - - - - 10 - - - -
30/09:10am 30.1 ENE 6 7 1012.1 - - - - 10 - - - -
30/09:00am 29.9 NE 7 8 1012.1 - - - - 10 - - - -
30/08:50am 29.9 NE 5 6 1012.1 - - - - 10 - - - -
30/08:40am 29.7 NE 5 6 1012.1 - - - - 10 - - - -
30/08:30am 29.9 NE 5 7 1012.0 - - - - 10 - - - -
30/08:20am 29.8 ENE 7 9 1012.0 - - - - 10 - - - -
30/08:10am 29.8 ENE 6 7 1011.9 - - - - 10 - - - -
30/08:00am 29.7 ENE 7 9 1011.8 - - - - 10 - - - -
30/07:50am 29.5 ENE 7 8 1011.7 - - - Partly cloudy 10 - - - -
30/07:40am 29.5 E 8 10 1011.7 - - - Partly cloudy 10 - - - -
30/07:30am 29.4 E 9 10 1011.6 - - - Partly cloudy 10 - - - -
30/07:20am 29.3 E 9 12 1011.4 - - - - 10 - - - -
30/07:10am 29.3 E 7 8 1011.3 - - - - 10 - - - -
30/07:00am 29.3 E 8 9 1011.1 - - - - 10 - - - -
30/06:50am 29.3 E 8 9 1011.1 - - - - 10 - - - -
30/06:40am 29.3 E 7 8 1011.0 - - - - 10 - - - -
30/06:30am 29.3 E 6 10 1011.1 - - - Partly cloudy 10 - - - -
30/06:20am 29.2 E 7 9 1011.2 - - - - 10 - - - -
30/06:10am 29.3 E 7 7 1011.2 - - - - 10 - - - -
30/06:00am 29.3 E 7 9 1011.1 - - - - 10 - - - -
30/05:50am 29.4 E 7 9 1011.0 - - - - 10 - - - -
30/05:40am 29.4 E 8 10 1011.0 - - - - 10 - - - -
30/05:30am 29.4 E 9 11 1010.9 - - - - 10 - - - -
30/05:20am 29.4 E 7 9 1010.9 - - - - 10 - - - -
30/05:10am 29.5 E 7 10 1010.8 - - - - 10 - - - -
30/05:00am 29.4 E 9 12 1010.7 - - - - 10 - - - -
30/04:50am 29.5 E 9 12 1010.7 - - - - 10 - - - -
30/04:40am 29.4 E 10 11 1010.8 - - - - 10 - - - -
30/04:30am 29.4 E 8 11 1010.8 - - - - 10 - - - -
30/04:20am 29.4 E 9 11 1010.7 - - - - 10 - - - -
30/04:10am 29.4 E 7 10 1010.7 - - - - 10 - - - -
30/04:00am 29.5 E 8 9 1010.7 - - - - 10 - - - -
30/03:50am 29.4 E 8 10 1010.7 - - - - 10 - - - -
30/03:40am 29.5 ESE 8 10 1010.6 - - - - 10 - - - -
30/03:30am 29.6 ESE 10 10 1010.6 - - - - 10 - - - -
30/03:20am 29.6 ESE 9 11 1010.6 - - - - 10 - - - -
30/03:10am 29.6 ESE 10 11 1010.7 - - - Partly cloudy 10 - - - -
30/03:00am 29.5 ESE 9 10 1010.7 - - - - 10 - - - -
30/02:50am 29.6 ESE 8 10 1010.9 - - - Partly cloudy 10 - - - -
30/02:40am 29.5 ESE 6 7 1010.9 - - - Partly cloudy 10 - - - -
30/02:30am 29.6 ESE 9 11 1011.0 - - - Partly cloudy 10 - - - -
30/02:20am 29.5 ESE 7 9 1011.0 - - - Partly cloudy 10 - - - -
30/02:10am 29.5 ESE 8 9 1011.1 - - - Partly cloudy 10 - - - -
30/02:00am 29.5 ESE 6 10 1011.2 - - - Partly cloudy 10 - - - -
30/01:50am 29.5 ESE 6 8 1011.2 - - - Partly cloudy 10 - - - -
30/01:40am 29.5 E 7 8 1011.3 - - - Partly cloudy 10 - - - -
30/01:30am 29.5 E 7 9 1011.4 - - - Partly cloudy 10 - - - -
30/01:20am 29.6 E 8 10 1011.5 - - - - 10 - - - -
30/01:10am 29.7 E 10 9 1011.6 - - - - 10 - - - -
30/01:00am 29.7 E 9 10 1011.6 - - - - 10 - - - -
30/12:50am 29.7 E 11 10 1011.7 - - - - 10 - - - -
30/12:40am 29.7 E 10 12 1011.7 - - - - 10 - - - -
30/12:30am 29.8 E 9 10 1011.9 - - - - 10 - - - -
30/12:20am 29.9 E 10 11 1012.0 - - - Partly cloudy 10 - - - -
30/12:10am 29.8 E 10 11 1012.1 - - - Partly cloudy 10 - - - -
30/12:00am 29.9 ESE 9 11 1012.1 - - - Partly cloudy 10 - - - -
 
Date/Time
CST
Temp

°C
Wind Pressure Rain
since 9am
mm
Weather Cloud Vis
km
Sea
Height
m
Swell
Dir
 
Speed
knots
Gust
knots
hPa Trend Height
m
Period
s
Dir
29/11:50pm 30.0 ESE 9 11 1012.1 - - - Partly cloudy 10 - - - -
29/11:40pm 29.9 E 10 12 1012.1 - - - Partly cloudy 10 - - - -
29/11:30pm 29.8 E 6 8 1012.2 - - - Partly cloudy 10 - - - -
29/11:20pm 29.9 E 7 8 1012.2 - - - Partly cloudy 10 - - - -
29/11:10pm 29.9 ESE 8 8 1012.3 - - - Partly cloudy 10 - - - -
29/11:00pm 29.9 ESE 7 9 1012.3 - - - Partly cloudy 10 - - - -
29/10:50pm 29.8 ESE 7 9 1012.3 - - - Partly cloudy 10 - - - -
29/10:40pm 29.8 ESE 7 8 1012.4 - - - Partly cloudy 10 - - - -
29/10:30pm 29.8 ESE 7 8 1012.4 - - - Partly cloudy 10 - - - -
29/10:20pm 29.9 ESE 7 9 1012.3 - - - - 10 - - - -
29/10:10pm 29.8 ESE 7 7 1012.3 - - - Partly cloudy 10 - - - -
29/10:00pm 29.8 E 8 8 1012.3 - - - Partly cloudy 10 - - - -
29/09:50pm 29.9 SE 9 10 1012.3 - - - Partly cloudy 10 - - - -
29/09:40pm 29.8 ESE 8 9 1012.1 - - - Partly cloudy 10 - - - -
29/09:30pm 29.9 ESE 8 9 1012.0 - - - - 10 - - - -
29/09:20pm 29.7 E 7 7 1011.9 - - - - 10 - - - -
29/09:10pm 29.7 E 7 7 1011.8 - - - - 10 - - - -
29/09:00pm 29.6 E 6 9 1011.8 - - - - 10 - - - -
29/08:50pm 29.7 E 6 6 1011.6 - - - - 10 - - - -
29/08:40pm 29.7 ESE 8 8 1011.5 - - - - 10 - - - -
29/08:30pm 29.8 E 8 11 1011.3 - - - Partly cloudy 10 - - - -
29/08:20pm 29.7 E 7 8 1011.2 - - - - 10 - - - -
29/08:10pm 29.8 ESE 7 7 1011.0 - - - - 10 - - - -
29/08:00pm 29.7 ESE 6 9 1010.9 - - - Partly cloudy 10 - - - -
29/07:50pm 29.7 E 6 8 1010.9 - - - Partly cloudy 10 - - - -
29/07:40pm 29.8 ESE 6 8 1010.8 - - - Partly cloudy 10 - - - -
29/07:30pm 29.7 ESE 6 8 1010.7 - - - - 10 - - - -
29/07:20pm 29.7 ESE 6 8 1010.7 - - - - 10 - - - -
29/07:10pm 29.7 ESE 6 7 1010.7 - - - - 10 - - - -
29/07:00pm 29.7 SE 5 9 1010.6 - - - - 10 - - - -
29/06:50pm 29.8 SE 6 6 1010.6 - - - - 10 - - - -
29/06:40pm 29.9 ESE 4 7 1010.5 - - - - 10 - - - -
29/06:30pm 30.3 SE 6 7 1010.4 - - - - 10 - - - -
29/06:20pm 30.1 SE 5 6 1010.4 - - - - 10 - - - -
29/06:10pm 30.0 SE 4 6 1010.4 - - - - 10 - - - -
29/06:00pm 30.2 SE 5 6 1010.2 - - - - 10 - - - -
29/05:50pm 30.1 SE 4 6 1010.1 - - - Partly cloudy 10 - - - -
29/05:40pm 30.6 SE 5 7 1009.9 - - - Partly cloudy 10 - - - -
29/05:30pm 30.7 SE 5 4 1009.8 - - - Partly cloudy 10 - - - -
29/05:20pm 30.5 SE 3 4 1009.7 - - - Partly cloudy 10 - - - -
29/05:10pm 30.5 SSE 3 6 1009.7 - - - - 10 - - - -
29/05:00pm 30.5 SE 3 4 1009.6 - - - - 10 - - - -
29/04:50pm 30.4 SE 4 4 1009.6 - - - - 10 - - - -
29/04:40pm 30.5 SSE 4 6 1009.6 - - - - 10 - - - -
29/04:30pm 31.7 S 3 4 1009.5 - - - - 10 - - - -
29/04:20pm 31.6 S 4 6 1009.5 - - - - 10 - - - -
29/04:10pm 32.4 S 3 4 1009.5 - - - - 10 - - - -
29/04:00pm 31.9 SW 3 5 1009.6 - - - - 10 - - - -
29/03:50pm 32.2 SW 5 4 1009.6 - - - Partly cloudy 10 - - - -
29/03:40pm 32.6 S 4 5 1009.7 - - - Partly cloudy 10 - - - -
29/03:30pm 33.4 SSE 3 5 1009.8 - - - Partly cloudy 10 - - - -
29/03:20pm 33.3 S 3 4 1009.8 - - - - 10 - - - -
29/03:10pm 32.4 S 5 5 1009.8 - - - - 10 - - - -
29/03:00pm 31.3 S 5 6 1009.9 - - - - 10 - - - -
29/02:50pm 32.2 SSE 6 6 1009.9 - - - - 10 - - - -
29/02:40pm 30.8 SSE 6 6 1010.1 - - - - 10 - - - -
29/02:30pm 30.4 S 4 6 1010.1 - - - - 10 - - - -
29/02:20pm 30.3 S 4 3 1010.1 - - - - 10 - - - -
29/02:10pm 29.8 SSE 4 7 1010.1 - - - Partly cloudy 10 - - - -
29/02:00pm 30.4 SSE 3 3 1010.3 - - - Partly cloudy 10 - - - -
29/01:50pm 30.1 SSE 5 4 1010.4 - - - Partly cloudy 10 - - - -
29/01:40pm 31.3 SSE 3 3 1010.6 - - - - 10 - - - -
29/01:30pm 31.0 SSE 4 4 1010.7 - - - - 10 - - - -
29/01:20pm 32.0 SSE 5 5 1010.8 - - - - 10 - - - -
29/01:10pm 31.1 SSE 3 3 1011.0 - - - Partly cloudy 10 - - - -
29/01:00pm 31.0 S 3 3 1011.1 - - - Partly cloudy 10 - - - -
29/12:50pm 29.7 S 3 3 1011.2 - - - Partly cloudy 10 - - - -
29/12:40pm 31.2 ESE 3 3 1011.4 - - - Partly cloudy 10 - - - -
29/12:30pm 30.4 ESE 3 5 1011.5 - - - Partly cloudy 10 - - - -
29/12:20pm 30.7 E 3 4 1011.7 - - - Partly cloudy 10 - - - -
29/12:10pm 31.3 E 2 4 1011.8 - - - - 10 - - - -
29/12:00pm 30.7 ENE 3 3 1011.9 - - - - 10 - - - -
29/11:50am 31.6 NNE 2 5 1012.0 - - - - 10 - - - -
29/11:40am 30.8 NW 2 3 1012.1 - - - - 10 - - - -
29/11:30am 30.7 NNE 2 3 1012.2 - - - - 10 - - - -
29/11:20am 30.4 N 2 4 1012.3 - - - - 10 - - - -
29/11:10am 30.5 N 2 4 1012.3 - - - - 10 - - - -
29/11:00am 30.0 N 2 4 1012.3 - - - - 10 - - - -
29/10:50am 30.0 WSW 1 2 1012.3 - - - - 10 - - - -
29/10:40am 30.1 ESE 1 2 1012.3 - - - - 10 - - - -
29/10:30am 31.4 N 1 1 1012.3 - - - - 10 - - - -
29/10:20am 31.4 ESE 1 2 1012.3 - - - - 10 - - - -
29/10:10am 31.4 E 2 2 1012.3 - - - - 10 - - - -
29/10:00am 31.9 E 2 4 1012.3 - - - - 10 - - - -
29/09:50am 31.2 ESE 3 2 1012.4 - - - - 10 - - - -
29/09:40am 31.1 ESE 4 7 1012.4 - - - - 10 - - - -
29/09:30am 31.3 E 4 5 1012.4 - - - - 10 - - - -
29/09:20am 31.6 E 5 7 1012.3 - - - - 10 - - - -
29/09:10am 31.1 E 6 8 1012.2 - - - - 10 - - - -
29/09:00am 31.1 E 4 6 1012.2 - - - - 10 - - - -
29/08:50am 31.9 E 5 6 1012.1 - - - - 10 - - - -
29/08:40am 32.2 E 6 7 1012.0 - - - - 5 - - - -
29/08:30am 30.9 E 5 5 1011.9 - - - - 5 - - - -
29/08:20am 30.4 E 5 5 1011.8 - - - - 10 - - - -
29/08:10am 30.2 E 4 7 1011.7 - - - - 10 - - - -
29/08:00am 29.8 E 4 7 1011.5 - - - - 10 - - - -
29/07:50am 29.4 ESE 6 8 1011.5 - - - - 10 - - - -
29/07:40am 29.2 ESE 6 7 1011.5 - - - Partly cloudy 10 - - - -
29/07:30am 29.1 ESE 6 8 1011.2 - - - Partly cloudy 10 - - - -
29/07:20am 29.0 E 7 9 1011.1 - - - Partly cloudy 10 - - - -
29/07:10am 29.0 ESE 7 8 1011.1 - - - Partly cloudy 10 - - - -
29/07:00am 28.9 E 6 9 1011.0 - - - Partly cloudy 10 - - - -
29/06:50am 29.1 E 7 7 1010.9 - - - Partly cloudy 10 - - - -
29/06:40am 29.0 E 6 7 1010.9 - - - Partly cloudy 10 - - - -
29/06:30am 29.0 E 6 8 1010.7 - - - Partly cloudy 10 - - - -
29/06:20am 29.1 E 7 7 1010.6 - - - Partly cloudy 10 - - - -
29/06:10am 29.1 E 7 8 1010.6 - - - - 10 - - - -
29/06:00am 29.1 E 8 10 1010.5 - - - - 10 - - - -
29/05:50am 29.2 E 8 9 1010.5 - - - Partly cloudy 10 - - - -
29/05:40am 29.1 E 8 9 1010.5 - - - Partly cloudy 10 - - - -
29/05:30am 29.1 E 8 10 1010.3 - - - Partly cloudy 10 - - - -
29/05:20am 29.1 E 7 10 1010.3 - - - Partly cloudy 10 - - - -
29/05:10am 29.1 E 7 10 1010.2 - - - Partly cloudy 10 - - - -
29/05:00am 29.1 E 7 8 1010.2 - - - - 10 - - - -
29/04:50am 29.1 E 7 10 1010.1 - - - Partly cloudy 10 - - - -
29/04:40am 29.2 ENE 6 8 1010.1 - - - Partly cloudy 10 - - - -
29/04:30am 29.2 ENE 6 10 1010.2 - - - Partly cloudy 10 - - - -
29/04:20am 29.2 NE 6 7 1010.1 - - - Partly cloudy 10 - - - -
29/04:10am 29.1 NE 6 6 1010.1 - - - - 10 - - - -
29/04:00am 29.1 NE 6 6 1010.1 - - - - 10 - - - -
29/03:50am 29.1 NE 6 7 1010.1 - - - - 10 - - - -
29/03:40am 29.2 NE 6 7 1010.2 - - - - 10 - - - -
29/03:30am 29.2 ENE 5 7 1010.2 - - - - 10 - - - -
29/03:20am 29.2 ENE 6 8 1010.3 - - - - 10 - - - -
29/03:10am 29.2 ENE 5 7 1010.4 - - - - 10 - - - -
29/03:00am 29.2 ENE 6 7 1010.4 - - - - 10 - - - -
29/02:50am 29.3 NE 7 7 1010.5 - - - - 10 - - - -
29/02:40am 29.2 NE 5 8 1010.5 - - - - 10 - - - -
29/02:30am 29.2 NE 5 6 1010.6 - - - - 10 - - - -
29/02:20am 29.3 NE 6 6 1010.7 - - - - 10 - - - -
29/02:10am 29.3 NE 6 8 1010.8 - - - - 10 - - - -
29/02:00am 29.4 NE 6 7 1011.0 - - - - 10 - - - -
29/01:50am 29.4 NE 6 6 1011.0 - - - - 10 - - - -
29/01:40am 29.4 NE 6 8 1011.2 - - - - 10 - - - -
29/01:30am 29.4 NE 5 8 1011.3 - - - - 10 - - - -
29/01:20am 29.4 NE 6 5 1011.4 - - - - 10 - - - -
29/01:10am 29.6 NE 6 8 1011.5 - - - - 10 - - - -
29/01:00am 29.5 NE 6 7 1011.6 - - - - 10 - - - -
29/12:50am 29.6 NE 6 6 1011.7 - - - - 10 - - - -
29/12:40am 29.5 NE 6 9 1011.7 - - - - 10 - - - -
29/12:30am 29.5 NE 5 7 1011.8 - - - - 10 - - - -
29/12:20am 29.6 ENE 5 7 1011.8 - - - - 10 - - - -
29/12:10am 29.7 NE 5 6 1011.9 - - - - 10 - - - -
29/12:00am 29.6 NE 6 5 1011.9 - - - - 10 - - - -
 
Date/Time
CST
Temp

°C
Wind Pressure Rain
since 9am
mm
Weather Cloud Vis
km
Sea
Height
m
Swell
Dir
 
Speed
knots
Gust
knots
hPa Trend Height
m
Period
s
Dir
28/11:50pm 29.7 ENE 7 8 1012.0 - - - - 10 - - - -
28/11:40pm 29.7 NE 5 5 1012.1 - - - - 10 - - - -
28/11:30pm 29.8 ENE 3 4 1012.1 - - - - 10 - - - -
28/11:20pm 29.8 E 4 4 1012.2 - - - - 10 - - - -
28/11:10pm 29.9 E 4 5 1012.3 - - - - 10 - - - -
28/11:00pm 29.9 E 5 5 1012.3 - - - - 10 - - - -
28/10:50pm 29.8 ENE 6 6 1012.3 - - - - 10 - - - -
28/10:40pm 29.7 E 4 7 1012.2 - - - - 10 - - - -
28/10:30pm 29.6 ENE 5 6 1012.2 - - - - 10 - - - -
28/10:20pm 29.7 E 5 7 1012.2 - - - - 10 - - - -
28/10:10pm 29.7 E 5 7 1012.1 - - - - 10 - - - -
28/10:00pm 29.7 E 6 6 1012.0 - - - - 10 - - - -
28/09:50pm 29.7 E 5 6 1011.9 - - - - 10 - - - -
28/09:40pm 29.7 E 5 5 1011.8 - - - - 10 - - - -
28/09:30pm 29.7 ENE 5 6 1011.7 - - - - 10 - - - -
28/09:20pm 29.8 E 5 7 1011.6 - - - Partly cloudy 10 - - - -
28/09:10pm 29.8 ENE 6 7 1011.6 - - - Partly cloudy 10 - - - -
28/09:00pm 29.8 NE 6 7 1011.5 - - - Partly cloudy 10 - - - -
28/08:50pm 29.8 NE 5 6 1011.4 - - - Partly cloudy 10 - - - -
28/08:40pm 29.9 ENE 5 6 1011.3 - - - Partly cloudy 10 - - - -
28/08:30pm 30.0 ESE 3 6 1011.2 - - - Partly cloudy 10 - - - -
28/08:20pm 30.0 ESE 4 6 1011.2 - - - - 10 - - - -
28/08:10pm 30.1 ESE 5 6 1011.0 - - - Partly cloudy 10 - - - -
28/08:00pm 30.3 ESE 5 7 1010.7 - - - Partly cloudy 10 - - - -
28/07:50pm 30.5 ESE 5 7 1010.6 - - - Partly cloudy 10 - - - -
28/07:40pm 30.3 SE 4 8 1010.5 - - - Cloudy 10 - - - -
28/07:30pm 29.9 WSW 1 2 1010.4 - - - Cloudy 10 - - - -
28/07:20pm 29.9 ENE 1 2 1010.3 - - - Partly cloudy 10 - - - -
28/07:10pm 29.9 NE 2 2 1010.2 - - - Partly cloudy 10 - - - -
28/07:00pm 29.9 ENE 2 3 1010.1 - - - Partly cloudy 10 - - - -
28/06:50pm 30.0 ESE 3 4 1010.0 - - - Partly cloudy 10 - - - -
28/06:40pm 30.0 E 3 3 1009.9 - - - Partly cloudy 10 - - - -
28/06:30pm 30.1 E 2 5 1009.8 - - - Partly cloudy 10 - - - -
28/06:20pm 30.4 ESE 3 3 1009.7 - - - Partly cloudy 10 - - - -
28/06:10pm 30.1 E 4 4 1009.6 - - - - 10 - - - -
28/06:00pm 30.2 ESE 4 6 1009.5 - - - - 10 - - - -
28/05:50pm 30.2 E 4 4 1009.4 - - - Partly cloudy 10 - - - -
28/05:40pm 30.1 ESE 5 7 1009.4 - - - Partly cloudy 10 - - - -
28/05:30pm 30.5 ESE 4 5 1009.3 - - - Partly cloudy 10 - - - -
28/05:20pm 30.4 ESE 4 5 1009.3 - - - Partly cloudy 10 - - - -
28/05:10pm 30.2 E 5 6 1009.3 - - - Partly cloudy 10 - - - -
28/05:00pm 30.0 E 5 6 1009.2 - - - Partly cloudy 10 - - - -
28/04:50pm 29.9 E 3 6 1009.1 - - - - 10 - - - -
28/04:40pm 30.2 ESE 3 3 1009.1 - - - - 10 - - - -
28/04:30pm 30.1 E 4 5 1009.1 - - - - 10 - - - -
28/04:20pm 30.2 ENE 3 4 1009.1 - - - - 10 - - - -
28/04:10pm 30.5 E 3 5 1009.1 - - - - 10 - - - -
28/04:00pm 32.2 E 2 4 1009.0 - - - - 10 - - - -
28/03:50pm 32.5 E 2 3 1009.1 - - - - 10 - - - -
28/03:40pm 32.7 E 2 4 1009.2 - - - - 9 - - - -
28/03:30pm 32.5 E 2 4 1009.1 - - - Partly cloudy 10 - - - -
28/03:20pm 31.3 ESE 2 3 1009.2 - - - Partly cloudy 10 - - - -
28/03:10pm 32.0 SSE 2 2 1009.3 - - - Partly cloudy 10 - - - -
28/03:00pm 32.3 S 1 2 1009.3 - - - - 10 - - - -
28/02:50pm 31.8 SSE 2 2 1009.4 - - - Partly cloudy 10 - - - -
28/02:40pm 32.8 SE 3 3 1009.5 - - - Partly cloudy 10 - - - -
28/02:30pm 32.1 SE 3 4 1009.6 - - - Partly cloudy 10 - - - -
28/02:20pm 32.9 SE 3 3 1009.7 - - - Partly cloudy 7 - - - -
28/02:10pm 30.9 SE 2 3 1009.8 - - - Partly cloudy 10 - - - -
28/02:00pm 32.4 SW 1 2 1009.9 - - - - 10 - - - -
28/01:50pm 31.9 E 2 3 1009.9 - - - - 10 - - - -
28/01:40pm 32.0 ESE 2 3 1009.9 - - - - 10 - - - -
28/01:30pm 32.6 ESE 2 3 1010.1 - - - - 10 - - - -
28/01:20pm 32.5 ESE 3 5 1010.2 - - - - 10 - - - -
28/01:10pm 32.4 SE 4 5 1010.4 - - - - 10 - - - -
28/01:00pm 32.0 SE 4 5 1010.6 - - - - 10 - - - -
28/12:50pm 32.5 SE 5 4 1010.7 - - - Partly cloudy 10 - - - -
28/12:40pm 30.2 SE 4 5 1010.8 - - - Partly cloudy 10 - - - -
28/12:30pm 29.9 SE 5 5 1011.1 - - - Partly cloudy 10 - - - -
28/12:20pm 29.9 SE 6 6 1011.2 - - - Partly cloudy 10 - - - -
28/12:10pm 29.7 SE 5 5 1011.3 - - - - 10 - - - -
28/12:00pm 30.6 ESE 5 6 1011.4 - - - Partly cloudy 10 - - - -
28/11:50am 30.1 ESE 5 5 1011.6 - - - Partly cloudy 10 - - - -
28/11:40am 30.8 ESE 6 6 1011.6 - - - Partly cloudy 10 - - - -
28/11:30am 31.4 ESE 6 7 1011.7 - - - - 10 - - - -
28/11:20am 31.0 ESE 6 7 1011.7 - - - - 10 - - - -
28/11:10am 31.0 ESE 5 7 1011.8 - - - - 10 - - - -
28/11:00am 30.8 ESE 5 6 1011.8 - - - - 10 - - - -
28/10:50am 31.1 ESE 5 6 1011.8 - - - - 10 - - - -
28/10:40am 31.5 ESE 4 4 1011.8 - - - - 10 - - - -
28/10:30am 31.4 ESE 4 6 1011.7 - - - - 10 - - - -
28/10:20am 31.3 SE 5 5 1011.7 - - - - 10 - - - -
28/10:10am 31.5 SE 4 5 1011.7 - - - - 10 - - - -
28/10:00am 31.9 SE 4 5 1011.6 - - - - 10 - - - -
28/09:50am 31.8 SE 3 4 1011.6 - - - - 9 - - - -
28/09:40am 31.3 SSE 4 5 1011.5 - - - - 10 - - - -
28/09:30am 31.7 SE 3 4 1011.5 - - - - 10 - - - -
28/09:20am 31.2 SE 3 5 1011.4 - - - - 10 - - - -
28/09:10am 30.8 SSE 3 5 1011.3 - - - - 10 - - - -
28/09:00am 31.5 SE 2 3 1011.1 - - - - 10 - - - -
28/08:50am 30.8 SSE 3 4 1010.9 - - - - 10 - - - -
28/08:40am 31.0 SSE 2 3 1010.8 - - - - 10 - - - -
28/08:30am 30.5 SE 3 3 1010.7 - - - - 10 - - - -
28/08:20am 30.8 ENE 2 2 1010.6 - - - - 10 - - - -
28/08:10am 30.3 NE 2 4 1010.4 - - - - 10 - - - -
28/08:00am 30.3 ENE 3 3 1010.4 - - - - 10 - - - -
28/07:50am 30.0 E 3 4 1010.3 - - - - 10 - - - -
28/07:40am 29.5 E 3 4 1010.1 - - - - 10 - - - -
28/07:30am 29.3 ENE 3 4 1009.9 - - - - 10 - - - -
28/07:20am 29.2 NE 4 5 1009.7 - - - - 10 - - - -
28/07:10am 29.2 NE 4 6 1009.6 - - - - 10 - - - -
28/07:00am 29.2 NE 5 5 1009.5 - - - - 10 - - - -
28/06:50am 29.2 NNE 5 5 1009.4 - - - - 10 - - - -
28/06:40am 29.2 NE 5 5 1009.3 - - - - 10 - - - -
28/06:30am 29.3 ENE 5 6 1009.2 - - - - 10 - - - -
28/06:20am 29.2 ENE 4 4 1009.2 - - - - 10 - - - -

Other Formats:

Comma delimited format used in spreadsheet applications
http://www.bom.gov.au/fwo/IDD60701/IDD60701.95100.axf

JavaScript Object Notation format (JSON) in row-major order
http://www.bom.gov.au/fwo/IDD60701/IDD60701.95100.json